SERIAL,TIME,MODEL,SN(OPTODE),OXYGEN,SATURATION,TEMPERATURE,CALPHASE,TCPHASE,C1RPH,C2RPH,C1AMP,C2AMP,RAWTEMP,CHECK
13,1336332913,4330,860,226.9882965087890600,75.1589736938476600,16.9221096038818360,31.5426692962646500,32.3858909606933600,36.0938301086425800,3.7079389095306396,660.7003784179688000,801.5609741210938000,205.2469024658203000,28455
13,1336336510,4330,860,224.9788055419922000,74.2850189208984400,16.7883892059326170,31.7083206176757800,32.5490913391113300,36.2282409667968750,3.6791529655456543,665.2108764648438000,802.9841918945312000,209.6439971923828000,10496
13,1336340110,4330,860,225.3531951904297000,74.3750991821289000,16.7668991088867200,31.6991500854492200,32.5400505065918000,36.2155189514160160,3.6754760742187500,664.9055786132812000,803.1622924804688000,210.3504943847656200,25712
13,1336343710,4330,860,221.7082061767578000,72.6022109985351600,16.3956794738769530,32.0635681152343750,32.8990592956543000,36.5726203918457000,3.6735610961914062,674.4979248046875000,806.8881835937500000,222.5594940185547000,9741
13,1336347310,4330,860,218.9750061035156200,71.5469284057617200,16.2898902893066400,32.2592391967773440,33.0918388366699200,36.7633895874023440,3.6715550422668457,679.9559936523438000,808.0582885742188000,226.0386962890625000,4644
13,1336350910,4330,860,214.2471008300781200,69.8961105346679700,16.2182807922363280,32.5517082214355500,33.3799705505371100,37.0480194091796900,3.6680529117584230,687.6428222656250000,808.9232788085938000,228.3941040039062500,23853
13,1336354510,4330,860,211.5464019775390600,68.2515029907226600,15.6955699920654300,32.9516105651855500,33.7739410400390600,37.4397697448730500,3.6658329963684080,698.2501220703125000,814.3336181640625000,245.5865020751953000,62531
13,1336358110,4330,860,209.0879058837890600,67.3196029663086000,15.5993299484252930,33.1380615234375000,33.9576187133789060,37.6219100952148440,3.6642909049987793,703.3325805664062000,815.4705200195312000,248.7514953613281200,64703
13,1336361710,4330,860,208.2597961425781200,67.0361785888671900,15.5876502990722660,33.1911392211914060,34.0099182128906250,37.6725006103515600,3.6625819206237793,704.8142700195312000,815.6312255859375000,249.1356048583984400,28103
13,1336365310,4330,860,210.4134063720703000,66.9513702392578100,15.0505504608154300,33.3275108337402340,34.1442604064941400,37.8062782287597660,3.6620180606842040,708.7192993164062000,821.4041748046875000,266.7962951660156000,20478
13,1336368910,4330,860,209.5523986816406200,66.7418289184570300,15.0952596664428710,33.3551597595214840,34.1715011596679700,37.8296394348144500,3.6581339836120605,709.1754760742188000,820.7811889648438000,265.3263854980469000,11808
13,1336372510,4330,860,209.5684051513672000,66.7962036132812500,15.1294202804565430,33.3379707336425800,34.1545715332031250,37.8108100891113300,3.6562418937683105,708.7139282226562000,820.3098754882812000,264.2033081054687500,29120
13,1336376110,4330,860,207.7691040039062500,65.6941528320312500,14.7592496871948240,33.6221008300781250,34.4344787597656250,38.0912017822265600,3.6567230224609375,716.4445800781250000,824.3449707031250000,276.3710937500000000,50033
13,1336379710,4330,860,207.7646026611328000,65.6823806762695300,14.7519998550415040,33.6259193420410160,34.4382400512695300,38.0953407287597660,3.6570971012115480,716.5336303710938000,824.4130249023438000,276.6094055175781000,64788
13,1336383310,4330,860,206.9261932373047000,65.2235870361328100,14.6155900955200200,33.7420501708984400,34.5526618957519500,38.2072410583496100,3.6545870304107666,719.7890014648438000,825.9329833984375000,281.0921020507812500,54003
13,1336386910,4330,860,205.2442932128906200,64.1093902587890600,14.2004299163818360,34.0460205078125000,34.8521194458007800,38.5073699951171900,3.6552510261535645,728.0003051757812000,830.4530029296875000,294.7293090820312500,52916
13,1336390510,4330,860,204.3601074218750000,63.7092895507812500,14.1118698120117190,34.1424293518066400,34.9471015930175800,38.6027412414550800,3.6556398868560790,730.6574096679688000,831.4293212890625000,297.6375122070312500,53819
13,1336394110,4330,860,204.2144012451172000,63.5790100097656250,14.0511503219604500,34.1809883117675800,34.9850807189941400,38.6409301757812500,3.6558461189270020,731.7681274414062000,832.1978149414062000,299.6308898925781000,22584
13,1336396167,4330,860,203.6365051269531200,62.9951705932617200,13.7610797882080080,34.3608016967773440,35.1622314453125000,38.8158607482910160,3.6536250114440920,736.5510253906250000,834.7799072265625000,309.1507873535156000,8578
13,1336396473,4330,860,205.5164947509765600,64.0925369262695300,14.1280698776245120,34.0653800964355500,34.8711891174316400,38.5271492004394500,3.6559600830078125,728.6055297851562000,832.4193725585938000,297.1054992675781000,9728
13,1336396528,4330,860,205.9140930175781200,64.3310394287109400,14.2092599868774410,34.0021286010742200,34.8088798522949200,38.4647407531738300,3.6558609008789062,726.8709716796875000,831.0816040039062000,294.4396057128906000,36764
13,1336396643,4330,860,206.0505981445312500,64.7479476928711000,14.4743204116821290,33.8627204895019500,34.6715393066406250,38.3260002136230500,3.6544649600982666,722.9780883789062000,828.7559204101562000,285.7334899902344000,43897
13,1336396758,4330,860,206.6360015869140600,65.1018295288086000,14.5942401885986330,33.7692108154296900,34.5794105529785160,38.2367210388183600,3.6573181152343750,720.4553222656250000,826.7238769531250000,281.7936096191406000,15046
13,1336396873,4330,860,207.7030029296875000,65.6283721923828100,14.7277803421020500,33.6412811279296900,34.4533805847168000,38.1086997985839840,3.6553189754486084,716.9846801757812000,825.5095214843750000,277.4054870605469000,57323
13,1336396988,4330,860,208.7463073730468800,66.1793899536132800,14.8822097778320310,33.5055999755859400,34.3197097778320300,37.9766082763671900,3.6568980216979980,713.2133789062500000,823.7335205078125000,272.3301086425781000,57272
13,1336397105,4330,860,209.8914031982422000,66.8087997436523400,15.0668401718139650,33.3494796752929700,34.1659011840820300,37.8253784179687500,3.6594769954681396,709.0515136718750000,821.7761230468750000,266.2608947753906000,54651
13,1336397232,4330,860,209.1300964355468800,66.8415069580078100,15.2580099105834960,33.3004302978515600,34.1175804138183600,37.7773818969726560,3.6597979068756104,707.5059204101562000,819.6602172851562000,259.9754943847656000,41131
13,1336397359,4330,860,210.0942993164062500,67.4587402343750000,15.4716596603393550,33.1422615051269500,33.9617614746093750,37.6231307983398440,3.6613690853118896,703.1301269531250000,817.6566772460938000,252.9499969482422000,42555
13,1336397488,4330,860,210.7821960449218800,67.8973236083984400,15.6215400695800780,33.0307502746582000,33.8519096374511700,37.5153999328613300,3.6634979248046875,700.1160888671875000,815.5709228515625000,248.0211944580078000,64069
13,1336397615,4330,860,210.7660064697265600,68.1151962280273400,15.7749795913696290,32.9577407836914060,33.7799797058105500,37.4466400146484400,3.6666638851165770,698.2545166015625000,814.0444946289062000,242.9745941162109400,59319
13,1336397756,4330,860,212.8318939208984400,69.1240386962890600,16.0072307586669920,32.7306098937988300,33.5562095642089840,37.2267189025878900,3.6705019474029540,692.0501708984375000,811.8436279296875000,235.3358001708984400,13545
13,1336397883,4330,860,215.2561950683593800,70.1480712890625000,16.1663894653320300,32.5203208923339840,33.3490409851074200,37.0204811096191400,3.6714398860931396,686.4334716796875000,809.8989868164062000,230.1009979248047000,27015
13,1336398010,4330,860,219.2169036865234400,71.7427597045898400,16.3669109344482420,32.2100486755371100,33.0433692932128900,36.7166099548339840,3.6732330322265625,678.1187133789062000,808.0009765625000000,223.5055999755859400,57189
13,1336398139,4330,860,221.0581970214843800,72.6180419921875000,16.5451698303222660,32.0280914306640600,32.8641090393066400,36.5410194396972660,3.6769099235534670,673.1613159179688000,805.8447875976562000,217.6427001953125000,17596
13,1336398266,4330,860,221.7747039794922000,73.0953979492187500,16.7026996612548830,31.9161796569824220,32.7538604736328100,36.4325103759765600,3.6786499023437500,670.0922241210938000,804.0894775390625000,212.4618988037109400,20209
13,1336398395,4330,860,224.9555053710937500,74.4170532226562500,16.8779907226562500,31.6681499481201170,32.5095100402832000,36.1894683837890600,3.6799619197845460,663.3975830078125000,802.3054809570312000,206.6974945068359400,13841
13,1336398522,4330,860,227.1201934814453000,75.3841629028320300,17.0373306274414060,31.4824905395507800,32.3266105651855500,36.0076713562011700,3.6810610294342040,658.4074707031250000,800.5886840820312000,201.4582061767578000,23812
13,1336398661,4330,860,231.0915985107422000,76.9090576171875000,17.1662406921386720,31.2217998504638670,32.0697784423828100,35.7529411315918000,3.6831591129302980,651.3640747070312000,799.2988281250000000,197.2200927734375000,48464
13,1336398814,4330,860,235.0052032470703000,78.3747711181640600,17.2662601470947270,30.9818000793457030,31.8333396911621100,35.5166091918945300,3.6832659244537354,644.9635009765625000,798.1724853515625000,193.9320983886718800,14020
13,1336398965,4330,860,233.4557037353515600,77.9546966552734400,17.3258991241455080,31.0311508178710940,31.8819599151611330,35.5667610168457000,3.6847989559173584,646.4946289062500000,797.4240112304688000,191.9716949462890600,21810
13,1336399110,4330,860,230.3692932128906200,77.0029678344726600,17.3751792907714840,31.1624603271484380,32.0113105773925800,35.6971015930175800,3.6857829093933105,650.1774291992188000,797.1113281250000000,190.3518981933593800,65040
13,1336399225,4330,860,230.5982971191406200,77.2501373291015600,17.4816303253173830,31.1025390625000000,31.9522895812988280,35.6407089233398440,3.6884229183197020,648.8065185546875000,796.3170166015625000,186.8533020019531200,40453
13,1336399330,4330,860,232.1705932617187500,77.9348907470703100,17.5795192718505860,30.9794692993164060,31.8310508728027340,35.5196800231933600,3.6886370182037354,645.6375732421875000,795.4337768554688000,183.6363983154297000,58370
13,1336399445,4330,860,232.5252990722656200,78.2395935058593800,17.6942806243896500,30.9099597930908200,31.7625694274902340,35.4530715942382800,3.6905059814453125,643.9863281250000000,794.7116699218750000,179.8657989501953000,15975
13,1336399548,4330,860,230.8312072753906200,77.8108062744140600,17.7822093963623050,30.9543094635009770,31.8062591552734380,35.4982910156250000,3.6920320987701416,645.4832153320312000,793.8201904296875000,176.9770050048828000,44009
13,1336399672,4330,860,229.0460968017578000,77.3711318969726600,17.8838596343994140,30.9979801177978500,31.8492794036865230,35.5415306091308600,3.6922450065612793,646.5408935546875000,792.8657836914062000,173.6380004882812500,38784
13,1336399815,4330,860,225.8166961669922000,76.4472198486328100,17.9899806976318360,31.1142902374267580,31.9638690948486330,35.6564216613769500,3.6925508975982666,649.8577270507812000,792.1099853515625000,170.1526031494140600,59665
13,1336399965,4330,860,227.0706024169922000,77.0519409179687500,18.1038799285888670,30.9986495971679700,31.8499393463134770,35.5468101501464840,3.6968770027160645,647.0573730468750000,791.1478881835938000,166.4127044677734400,39208
13,1336400044,4330,860,226.6631927490234400,77.0699005126953100,18.2027091979980470,30.9747390747070300,31.8263893127441400,35.5235595703125000,3.6971740722656250,646.3256225585938000,790.1793823242188000,163.1678009033203000,51109
13,1336400147,4330,860,227.6056060791015600,77.8986282348632800,18.5227699279785160,30.7831707000732420,31.6376590728759770,35.3384017944335940,3.7007451057434080,641.0139160156250000,787.7398071289062000,152.6643066406250000,7264
13,1336400294,4330,860,233.5811004638672000,80.4367370605468800,18.8247890472412100,30.3517608642578120,31.2126502990722660,34.9202308654785160,3.7075879573822020,629.3944091796875000,784.4702758789062000,142.7590942382812500,45691
13,1336400397,4330,860,239.2572021484375000,82.9020996093750000,19.1299095153808600,29.9445304870605470,30.8114490509033200,34.5214500427246100,3.7099909782409670,618.2504882812500000,782.2072143554688000,132.7597961425781200,5731
13,1336400500,4330,860,249.4132995605468800,86.7151870727539000,19.2982501983642580,29.4024505615234380,30.2774105072021500,33.9934501647949200,3.7160420417785645,603.6622924804688000,779.6002197265625000,127.2462005615234400,29503
13,1336400602,4330,860,258.3789978027344000,89.9502334594726600,19.3633403778076170,28.9797992706298830,29.8610305786132800,33.5801315307617200,3.7191009521484375,592.3007812500000000,778.3485107421875000,125.1149978637695300,4702
13,1336400669,4330,860,262.2088012695312500,91.2940368652343800,19.3690891265869140,28.8138408660888670,29.6975307464599600,33.4147300720214840,3.7172009944915770,587.7224121093750000,777.8845214843750000,124.9270019531250000,2443
13,1336400748,4330,860,263.1050109863281000,91.6033172607421900,19.3675708770751950,28.7766799926757800,29.6609191894531250,33.3761100769043000,3.7151949405670166,586.7216796875000000,777.7965698242188000,124.9766006469726600,22017
13,1336400815,4330,860,263.6281127929687500,91.7935409545898400,19.3719406127929700,28.7528095245361330,29.6374092102050780,33.3534507751464840,3.7160420417785645,586.3685913085938000,777.7559814453125000,124.8338012695312500,29293
13,1336400884,4330,860,263.7734985351562500,91.8492889404296900,19.3747406005859380,28.7454109191894530,29.6301097869873050,33.3471298217773440,3.7170178890228270,586.2832031250000000,777.7841796875000000,124.7419967651367200,25270
13,1336400951,4330,860,263.8594055175781000,91.8818435668945300,19.3761501312255860,28.7411594390869140,29.6259307861328120,33.3424186706543000,3.7164919376373290,586.3344726562500000,777.8139038085938000,124.6958007812500000,49688
13,1336401018,4330,860,263.6561889648437500,91.8151168823242200,19.3783702850341800,28.7486591339111330,29.6333198547363280,33.3486099243164060,3.7152938842773438,586.5186767578125000,777.8842163085938000,124.6232986450195300,10691
13,1336401085,4330,860,263.9833068847656000,91.9329528808593800,19.3804798126220700,28.7341194152832030,29.6189899444580080,33.3361091613769500,3.7171170711517334,586.3579101562500000,777.8953247070312000,124.5541992187500000,21195
13,1336401152,4330,860,263.7526855468750000,91.8467102050781200,19.3772697448730470,28.7451896667480470,29.6298999786376950,33.3460197448730500,3.7161250114440920,586.6453247070312000,777.9611206054688000,124.6591033935546900,43999
13,1336401221,4330,860,263.8469848632812500,91.8840484619140600,19.3796901702880860,28.7400608062744140,29.6248397827148440,33.3404388427734400,3.7155990600585938,586.7949218750000000,778.1182861328125000,124.5800018310546900,19317
13,1336401288,4330,860,264.1177978515625000,91.9845199584961000,19.3830108642578120,28.7274303436279300,29.6124000549316400,33.3262786865234400,3.7138750553131104,586.5111083984375000,778.2282104492188000,124.4712982177734400,9795
13,1336401367,4330,860,264.6167907714844000,92.1656265258789000,19.3869800567626950,28.7047691345214840,29.5900707244873050,33.3038482666015600,3.7137761116027830,585.9882202148438000,778.2907714843750000,124.3413009643554700,32513
13,1336401434,4330,860,264.7990112304687500,92.2307891845703100,19.3878803253173830,28.6967201232910160,29.5821495056152340,33.2961311340332000,3.7139821052551270,585.6873779296875000,778.2949218750000000,124.3117980957031200,47269
13,1336401501,4330,860,264.9703979492187500,92.2927169799804700,19.3890895843505860,28.6889801025390620,29.5745201110839840,33.2877807617187500,3.7132570743560790,585.5756835937500000,778.3214111328125000,124.2721023559570300,44217
13,1336401570,4330,860,264.8287048339844000,92.2510299682617200,19.3932209014892580,28.6932392120361330,29.5787105560302730,33.2919006347656250,3.7131879329681396,585.7540283203125000,778.3964233398438000,124.1369018554687500,50880
13,1336401649,4330,860,264.3550109863281000,92.0901870727539000,19.3954906463623050,28.7120208740234380,29.5972194671630860,33.3104209899902340,3.7132029533386230,586.4003906250000000,778.5021972656250000,124.0627975463867200,33036
13,1336401716,4330,860,264.2734985351562500,92.0608978271484400,19.3949794769287100,28.7155895233154300,29.6007404327392580,33.3157615661621100,3.7150189876556396,586.5795898437500000,778.5524902343750000,124.0794982910156200,20391
13,1336401795,4330,860,264.2867126464844000,92.0697097778320300,19.3972492218017580,28.7141399383544920,29.5993003845214840,33.3132019042968750,3.7138979434967040,586.7064819335938000,778.7584228515625000,124.0052032470703100,20624
13,1336401864,4330,860,264.3604125976562500,92.0983428955078100,19.3988704681396500,28.7105102539062500,29.5957298278808600,33.3101081848144500,3.7143781185150146,586.5687866210938000,778.6782226562500000,123.9521026611328100,37613
13,1336401919,4330,860,264.4516906738281000,92.1333084106445300,19.4005603790283200,28.7059707641601560,29.5912609100341800,33.3042411804199200,3.7129819393157960,586.4918823242188000,778.6741943359375000,123.8967971801757800,14204
13,1336401974,4330,860,265.0580139160156000,92.3562011718750000,19.4068393707275400,28.6779098510742200,29.5636100769042970,33.2754096984863300,3.7118000984191895,585.7628784179688000,778.6295776367188000,123.6912002563476600,19742
13,1336402029,4330,860,265.9396972656250000,92.6776733398437500,19.4144897460937500,28.6377296447753900,29.5240306854248050,33.2375183105468750,3.7134859561920166,584.6163940429688000,778.6467285156250000,123.4409027099609400,17909
13,1336402084,4330,860,267.5242004394531000,93.2402267456054700,19.4200000762939450,28.5697498321533200,29.4570503234863280,33.1726913452148440,3.7156369686126710,583.0109252929688000,778.6876831054688000,123.2602996826171900,16578
13,1336402139,4330,860,268.2976989746094000,93.5156097412109400,19.4231090545654300,28.5365390777587900,29.4243507385253900,33.1371192932128900,3.7127690315246580,582.2056274414062000,778.7141113281250000,123.1586990356445300,27764
13,1336402197,4330,860,268.7250976562500000,93.6736068725586000,19.4278907775878900,28.5169200897216800,29.4050102233886720,33.1172714233398440,3.7122569084167480,581.7406005859375000,778.8120117187500000,123.0019989013671900,8266
13,1336402252,4330,860,269.2037048339844000,93.8496170043945300,19.4327507019042970,28.4951400756835940,29.3835506439209000,33.0957298278808600,3.7121729850769043,581.1984863281250000,778.9639282226562000,122.8431015014648400,35657
13,1336402307,4330,860,269.8327941894531000,94.0754165649414000,19.4361801147460940,28.4678897857666000,29.3567104339599600,33.0691604614257800,3.7124478816986084,580.6685180664062000,778.8760986328125000,122.7306976318359400,50811
13,1336402362,4330,860,270.0610046386719000,94.1788787841796900,19.4487800598144530,28.4533100128173830,29.3423500061035160,33.0562400817871100,3.7138979434967040,580.3223876953125000,778.9071044921875000,122.3183975219726600,29728
13,1336402417,4330,860,271.0440979003906000,94.5583572387695300,19.4680690765380860,28.4050903320312500,29.2948493957519530,33.0088615417480500,3.7140119075775146,579.0582275390625000,778.8029785156250000,121.6869964599609400,43385
13,1336402472,4330,860,272.0455932617187500,94.9378204345703100,19.4838504791259770,28.3578395843505860,29.2482891082763670,32.9603500366210940,3.7120590209960938,577.6641845703125000,778.7014770507812000,121.1707000732421900,34970
13,1336402530,4330,860,272.9682006835937500,95.2881164550781200,19.4986591339111330,28.3142299652099600,29.2053298950195300,32.9176292419433600,3.7123029232025146,576.5673217773438000,778.6705932617188000,120.6858978271484400,45950
13,1336402585,4330,860,273.5715942382812500,95.5449905395507800,19.5227699279785160,28.2797603607177730,29.1713695526123050,32.8833999633789060,3.7120289802551270,575.6071777343750000,778.6040039062500000,119.8970031738281200,19422
13,1336402640,4330,860,274.7385864257812500,95.9977569580078100,19.5462493896484380,28.2229690551757800,29.1154308319091800,32.8279495239257800,3.7125239372253420,574.2360229492188000,778.3859252929688000,119.1287002563476600,58065
13,1336402695,4330,860,275.7232055664062500,96.3762512207031200,19.5640296936035160,28.1762790679931640,29.0694293975830080,32.7831001281738300,3.7136690616607666,573.0197753906250000,778.2974243164062000,118.5469970703125000,15608
13,1336402750,4330,860,276.8290100097656000,96.8777236938476600,19.6232299804687500,28.1074008941650400,29.0015602111816400,32.7143592834472660,3.7127990722656250,571.0336914062500000,778.0037231445312000,116.6099014282226600,48395
13,1336402805,4330,860,277.8666992187500000,97.3581771850586000,19.6833992004394530,28.0412292480468750,28.9363803863525400,32.6506690979003900,3.7142939567565920,569.3452758789062000,777.5007934570312000,114.6417999267578100,49844
13,1336402863,4330,860,278.1961975097656000,97.5246429443359400,19.7095394134521500,28.0172100067138670,28.9127101898193360,32.6289100646972660,3.7162020206451416,568.7761840820312000,777.1367797851562000,113.7870025634765600,13052
13,1336402918,4330,860,277.6765136718750000,97.5506134033203100,19.8163509368896500,27.9929103851318360,28.8887691497802730,32.6048316955566400,3.7160570621490480,568.0869750976562000,776.6635131835938000,110.2945022583007800,31422
13,1336402973,4330,860,277.6759948730469000,97.6876373291015600,19.8867092132568360,27.9636001586914060,28.8598995208740230,32.5760612487793000,3.7161560058593750,567.4487304687500000,775.9395141601562000,107.9944000244140600,53342
13,1336403028,4330,860,277.4244995117187500,97.7173309326171900,19.9473495483398440,27.9480991363525400,28.8446292877197270,32.5613098144531250,3.7166819572448730,566.8995971679688000,775.2689819335938000,106.0124969482421900,50398
13,1336403083,4330,860,276.6094055175781000,97.7950286865234400,20.1350193023681640,27.9020900726318360,28.7992992401123050,32.5188407897949200,3.7195360660552980,565.6810913085938000,774.1953125000000000,99.8817901611328100,30843
13,1336403138,4330,860,275.3223876953125000,97.6513595581054700,20.2958507537841800,27.8862094879150400,28.7836494445800780,32.5046195983886700,3.7209699153900146,565.1525878906250000,772.9727783203125000,94.6309127807617200,23053
13,1336403216,4330,860,274.0822143554687500,97.3618774414062500,20.3738002777099600,27.9030399322509770,28.8002300262451170,32.5259399414062500,3.7257080078125000,565.6295776367188000,771.3967285156250000,92.0869369506836000,64367
13,1336403271,4330,860,273.3445129394531000,97.1592864990234400,20.4047203063964840,27.9196891784667970,28.8166408538818360,32.5447807312011700,3.7281339168548584,565.8989868164062000,770.6473999023438000,91.0781936645507800,47039
13,1336403326,4330,860,273.0053100585937500,97.0675430297851600,20.4197406768798830,27.9270801544189450,28.8239192962646500,32.5515518188476560,3.7276310920715330,566.2274169921875000,770.3543090820312000,90.5879364013671900,7495
13,1336403381,4330,860,272.7969970703125000,97.0360412597656200,20.4418907165527340,27.9260101318359380,28.8228702545166000,32.5509796142578100,3.7281110286712646,566.3753051757812000,770.1721191406250000,89.8655700683593800,17720
13,1336403436,4330,860,272.6076049804687500,96.9951934814453100,20.4557094573974600,27.9279003143310550,28.8247299194335940,32.5522499084472660,3.7275240421295166,566.4403076171875000,769.8878173828125000,89.4147415161132800,53721
13,1336403491,4330,860,272.4863891601562500,96.9723281860351600,20.4662895202636720,27.9285202026367200,28.8253402709960940,32.5534400939941400,3.7280960083007812,566.5416259765625000,769.8449707031250000,89.0697402954101600,24581
13,1336403549,4330,860,272.3241882324219000,96.9354095458984400,20.4771499633789060,27.9304199218750000,28.8272094726562500,32.5538787841796900,3.7266690731048584,566.6348876953125000,769.8399047851562000,88.7152862548828100,29684
13,1336403601,4330,860,272.1033935546875000,96.9325180053711000,20.5166606903076170,27.9230098724365230,28.8199100494384770,32.5487289428710940,3.7288210391998290,566.5106811523438000,769.7022094726562000,87.4267272949218800,15081